When you browse on this site, cookies collect data to enhance your experience and personalize the content and advertising you see.
Visit our Privacy Policy to learn more. By continuing to use the site, you agree to this use of cookies and data.
  • în România
  • Lista ţărilor
  • Pe 7 zile
  • Temperatura apei
  • Hartă satelitară
  • Meteo pe hartă
  • Widget-uri
  • user-avatar
    Intrare

    Meteo pe oră la Rogoźno

    Astăzi, 25 Mai, Sâmbătă

    Timp Temperatura Precipitaţii Vânt Presiune Umiditate
    00:00 +12°C° 0 mm 3 m/s 752 mmHg 68%
    01:00 +12°C° 0 mm 3 m/s 752 mmHg 69%
    02:00 +11°C° 0 mm 3 m/s 752 mmHg 73%
    03:00 +11°C° 0 mm 3 m/s 752 mmHg 78%
    04:00 +12°C° 0 mm 2 m/s 752 mmHg 82%
    05:00 +12°C° 0 mm 3 m/s 752 mmHg 81%
    06:00 +13°C° 0 mm 3 m/s 752 mmHg 80%
    07:00 +14°C° 0 mm 4 m/s 752 mmHg 78%
    08:00 +15°C° 0 mm 4 m/s 753 mmHg 74%
    09:00 +17°C° 0 mm 4 m/s 753 mmHg 70%
    10:00 +17°C° 0 mm 5 m/s 753 mmHg 66%
    11:00 +17°C° 0 mm 5 m/s 753 mmHg 65%
    12:00 +17°C° 0 mm 5 m/s 753 mmHg 65%
    13:00 +17°C° 0 mm 5 m/s 754 mmHg 62%
    14:00 +17°C° 0 mm 5 m/s 754 mmHg 62%
    15:00 +18°C° 0 mm 4 m/s 754 mmHg 62%
    16:00 +18°C° 0 mm 4 m/s 754 mmHg 62%
    17:00 +17°C° 0 mm 4 m/s 754 mmHg 67%
    18:00 +14°C° 0 mm 3 m/s 754 mmHg 72%
    19:00 +13°C° 0 mm 3 m/s 753 mmHg 76%
    20:00 +12°C° 0 mm 3 m/s 754 mmHg 80%
    21:00 +10°C° 0 mm 2 m/s 754 mmHg 84%
    22:00 +9°C° 0 mm 2 m/s 754 mmHg 88%
    23:00 +8°C° 0 mm 2 m/s 754 mmHg 90%

    Mâine, 26 Mai, Duminică

    Timp Temperatura Precipitaţii Vânt Presiune Umiditate
    00:00 +8°C° 0 mm 2 m/s 754 mmHg 91%
    01:00 +8°C° 0 mm 2 m/s 754 mmHg 92%
    02:00 +8°C° 0 mm 2 m/s 754 mmHg 92%
    03:00 +8°C° 0 mm 3 m/s 754 mmHg 92%
    04:00 +8°C° 0 mm 3 m/s 754 mmHg 91%
    05:00 +9°C° 0 mm 3 m/s 754 mmHg 87%
    06:00 +10°C° 0 mm 4 m/s 754 mmHg 82%
    07:00 +11°C° 0 mm 4 m/s 754 mmHg 77%
    08:00 +13°C° 0 mm 5 m/s 754 mmHg 73%
    09:00 +14°C° 0 mm 5 m/s 753 mmHg 69%
    10:00 +15°C° 0 mm 5 m/s 753 mmHg 65%
    11:00 +16°C° 0 mm 5 m/s 753 mmHg 62%
    12:00 +17°C° 0 mm 5 m/s 752 mmHg 59%
    13:00 +19°C° 0 mm 5 m/s 752 mmHg 56%
    14:00 +20°C° 0 mm 5 m/s 752 mmHg 57%
    15:00 +20°C° 0 mm 5 m/s 751 mmHg 58%
    16:00 +20°C° 0 mm 4 m/s 751 mmHg 59%
    17:00 +19°C° 0 mm 4 m/s 751 mmHg 64%
    18:00 +18°C° 0 mm 3 m/s 751 mmHg 69%
    19:00 +17°C° 0 mm 3 m/s 751 mmHg 74%
    20:00 +17°C° 0 mm 2 m/s 751 mmHg 75%
    21:00 +16°C° 0 mm 2 m/s 751 mmHg 77%
    22:00 +15°C° 0 mm 2 m/s 751 mmHg 79%
    23:00 +14°C° 0 mm 3 m/s 750 mmHg 81%

    Poimâine, 27 Mai, Luni

    Timp Temperatura Precipitaţii Vânt Presiune Umiditate
    00:00 +14°C° 0 mm 3 m/s 750 mmHg 82%
    01:00 +13°C° 0 mm 4 m/s 750 mmHg 84%
    02:00 +14°C° 0 mm 4 m/s 750 mmHg 83%
    03:00 +14°C° 0 mm 4 m/s 749 mmHg 82%
    04:00 +14°C° 0 mm 5 m/s 749 mmHg 81%
    05:00 +15°C° 0 mm 5 m/s 749 mmHg 79%
    06:00 +16°C° 0 mm 5 m/s 749 mmHg 77%
    07:00 +17°C° 0 mm 6 m/s 749 mmHg 75%
    08:00 +19°C° 0.1 mm 6 m/s 749 mmHg 73%
    09:00 +20°C° 0.1 mm 6 m/s 749 mmHg 71%
    10:00 +21°C° 0.1 mm 6 m/s 749 mmHg 69%
    11:00 +21°C° 0.7 mm 6 m/s 749 mmHg 72%
    12:00 +21°C° 0.7 mm 6 m/s 749 mmHg 75%
    13:00 +20°C° 0.7 mm 5 m/s 749 mmHg 78%
    14:00 +21°C° 0.3 mm 5 m/s 749 mmHg 74%
    15:00 +21°C° 0.3 mm 5 m/s 749 mmHg 70%
    16:00 +21°C° 0.3 mm 4 m/s 750 mmHg 66%
    17:00 +20°C° 0 mm 4 m/s 750 mmHg 69%
    18:00 +19°C° 0 mm 3 m/s 750 mmHg 72%
    19:00 +17°C° 0 mm 3 m/s 750 mmHg 76%
    20:00 +16°C° 0 mm 3 m/s 750 mmHg 80%
    21:00 +14°C° 0 mm 2 m/s 750 mmHg 84%
    22:00 +12°C° 0 mm 2 m/s 751 mmHg 88%
    23:00 +12°C° 0 mm 2 m/s 750 mmHg 87%

    28 Mai, Marţi

    Timp Temperatura Precipitaţii Vânt Presiune Umiditate
    00:00 +11°C° 0 mm 3 m/s 750 mmHg 85%
    01:00 +11°C° 0 mm 3 m/s 750 mmHg 84%
    02:00 +11°C° 0.1 mm 3 m/s 750 mmHg 84%
    03:00 +11°C° 0.1 mm 3 m/s 749 mmHg 85%
    04:00 +11°C° 0.1 mm 3 m/s 749 mmHg 85%
    05:00 +11°C° 1.1 mm 3 m/s 748 mmHg 88%
    06:00 +11°C° 1.1 mm 3 m/s 748 mmHg 90%
    07:00 +11°C° 1.1 mm 4 m/s 748 mmHg 92%
    08:00 +11°C° 1.4 mm 4 m/s 748 mmHg 93%
    09:00 +11°C° 1.4 mm 4 m/s 748 mmHg 93%
    10:00 +11°C° 1.4 mm 4 m/s 747 mmHg 93%
    11:00 +11°C° 1.2 mm 4 m/s 747 mmHg 93%
    12:00 +11°C° 1.2 mm 4 m/s 747 mmHg 94%
    13:00 +10°C° 1.2 mm 4 m/s 747 mmHg 94%
    14:00 +10°C° 0.5 mm 4 m/s 747 mmHg 94%
    15:00 +10°C° 0.5 mm 4 m/s 747 mmHg 94%
    16:00 +10°C° 0.5 mm 4 m/s 747 mmHg 94%
    17:00 +10°C° 0.4 mm 4 m/s 747 mmHg 94%
    18:00 +10°C° 0.4 mm 4 m/s 747 mmHg 94%
    19:00 +10°C° 0.4 mm 3 m/s 748 mmHg 95%
    20:00 +10°C° 0 mm 3 m/s 748 mmHg 95%
    21:00 +9°C° 0 mm 3 m/s 748 mmHg 95%
    22:00 +9°C° 0 mm 2 m/s 748 mmHg 96%
    23:00 +9°C° 0 mm 2 m/s 748 mmHg 96%

    29 Mai, Miercuri

    Timp Temperatura Precipitaţii Vânt Presiune Umiditate
    00:00 +9°C° 0 mm 2 m/s 749 mmHg 96%
    01:00 +8°C° 0 mm 2 m/s 749 mmHg 97%
    02:00 +8°C° 0 mm 2 m/s 749 mmHg 96%
    03:00 +8°C° 0 mm 2 m/s 749 mmHg 96%
    04:00 +9°C° 0 mm 1 m/s 749 mmHg 96%
    05:00 +10°C° 0 mm 1 m/s 749 mmHg 92%
    06:00 +12°C° 0 mm 2 m/s 750 mmHg 89%
    07:00 +14°C° 0 mm 2 m/s 750 mmHg 85%
    08:00 +15°C° 0 mm 2 m/s 750 mmHg 81%
    09:00 +16°C° 0 mm 2 m/s 750 mmHg 76%
    10:00 +17°C° 0 mm 3 m/s 750 mmHg 72%
    11:00 +17°C° 0.2 mm 3 m/s 751 mmHg 74%
    12:00 +17°C° 0.2 mm 3 m/s 751 mmHg 76%
    13:00 +17°C° 0.2 mm 3 m/s 751 mmHg 78%
    14:00 +17°C° 0.4 mm 3 m/s 751 mmHg 78%
    15:00 +17°C° 0.4 mm 3 m/s 751 mmHg 78%
    16:00 +17°C° 0.4 mm 4 m/s 752 mmHg 78%
    17:00 +15°C° 0.3 mm 4 m/s 752 mmHg 82%
    18:00 +14°C° 0.3 mm 5 m/s 753 mmHg 86%
    19:00 +13°C° 0.3 mm 5 m/s 753 mmHg 89%
    20:00 +12°C° 0 mm 5 m/s 754 mmHg 90%
    21:00 +9°C° 0 mm 5 m/s 754 mmHg 90%
    22:00 +8°C° 0 mm 4 m/s 755 mmHg 90%
    23:00 +7°C° 0 mm 4 m/s 755 mmHg 89%

    30 Mai, Joi

    Timp Temperatura Precipitaţii Vânt Presiune Umiditate
    00:00 +7°C° 0 mm 4 m/s 756 mmHg 89%
    01:00 +7°C° 0 mm 3 m/s 756 mmHg 88%
    02:00 +5°C° 0 mm 3 m/s 757 mmHg 89%
    03:00 +5°C° 0 mm 3 m/s 757 mmHg 90%
    04:00 +4°C° 0 mm 3 m/s 758 mmHg 91%
    05:00 +7°C° 0 mm 3 m/s 758 mmHg 85%
    06:00 +8°C° 0 mm 3 m/s 759 mmHg 80%
    07:00 +10°C° 0 mm 3 m/s 759 mmHg 74%
    08:00 +11°C° 0 mm 3 m/s 759 mmHg 67%
    09:00 +13°C° 0 mm 3 m/s 759 mmHg 60%
    10:00 +14°C° 0 mm 3 m/s 759 mmHg 52%
    11:00 +16°C° 0 mm 3 m/s 759 mmHg 50%
    12:00 +17°C° 0 mm 3 m/s 759 mmHg 47%
    13:00 +18°C° 0 mm 3 m/s 759 mmHg 45%
    14:00 +18°C° 0 mm 3 m/s 759 mmHg 48%
    15:00 +18°C° 0 mm 3 m/s 759 mmHg 50%
    16:00 +18°C° 0 mm 3 m/s 759 mmHg 52%
    17:00 +17°C° 0 mm 3 m/s 758 mmHg 59%
    18:00 +16°C° 0 mm 3 m/s 758 mmHg 66%
    19:00 +14°C° 0 mm 3 m/s 758 mmHg 72%
    20:00 +13°C° 0 mm 3 m/s 758 mmHg 74%
    21:00 +12°C° 0 mm 4 m/s 758 mmHg 76%
    22:00 +12°C° 0 mm 4 m/s 758 mmHg 78%
    23:00 +12°C° 0 mm 4 m/s 757 mmHg 78%
    Arată mai mult